[[{"header":{"parameterUnit":"m.s-1","parameterCategory":1,"la1":30.2991,"la2":30.254,"lo1":-89.0895,"lo2":-89.0444,"dy":0.0017,"dx":0.0017,"nx":28,"ny":28,"refTime":"2024-03-15T09:00:00:Z","depth":0,"parameterNumber":2,"parameterNumberName":"U-component_of_WINDS"},"data":[0,0,0,0,0,0,0,0,0,0,0,0,0,0,0,0,0,0,0,0,0,0,0,0,0,0,0,0,0,0,0,0,0,0,0,0,0,0,0,0,0,0,0,0,0,0,0,0,0,0,0,0,0,0,0,0,0,0,-0.4851,-0.4851,0,-0.4811,-0.481,-0.481,-0.48,-0.4801,-0.4801,-0.4801,-0.4759,-0.4758,-0.4757,0,0,0,0,0,0,0,0,0,0,0,0,0,-0.492,-0.4919,-0.4851,-0.4851,-0.485,-0.4811,-0.481,-0.481,-0.48,-0.4801,-0.4801,-0.4801,-0.476,-0.4758,-0.4757,0,0,0,0,0,0,0,0,0,0,0,0,0,-0.4886,-0.4918,-0.4852,-0.4841,-0.484,-0.4811,-0.481,-0.481,-0.48,-0.4801,-0.4801,-0.4801,-0.476,-0.4758,-0.4756,-0.4735,0,0,-0.475,-0.4749,0,0,0,0,0,0,0,0,-0.4888,-0.4883,-0.4843,-0.4842,-0.484,-0.4811,-0.4819,-0.4785,-0.48,-0.4815,-0.4801,-0.4802,-0.4776,-0.4773,-0.4764,-0.4734,-0.4732,-0.475,-0.4749,-0.4748,-0.4747,0,0,0,0,0,0,0,-0.489,-0.4885,-0.4835,-0.4842,-0.4841,-0.4838,-0.4834,-0.4813,-0.4794,-0.4814,-0.4813,-0.4808,-0.4776,-0.4766,-0.4763,-0.4731,-0.475,-0.4748,-0.4747,-0.4746,-0.4681,-0.468,0,0,0,0,0,0,-0.4895,-0.4887,-0.4837,-0.4834,-0.4866,-0.4836,-0.4832,-0.482,-0.4794,-0.4791,-0.4808,-0.4808,-0.477,-0.4766,-0.4762,-0.4735,-0.4748,-0.4746,-0.4745,-0.4681,-0.4681,-0.468,0,0,0,0,0,0,-0.4896,-0.489,-0.4838,-0.486,-0.4854,-0.4835,-0.4822,-0.4819,-0.481,-0.479,-0.4786,-0.4802,-0.477,-0.4765,-0.4742,-0.4734,-0.4745,-0.4743,-0.4682,-0.4681,-0.468,-0.4683,0,0,0,0,0,0,-0.4898,-0.4891,-0.4883,-0.486,-0.4853,-0.4819,-0.4821,-0.4818,-0.4806,-0.4806,-0.4783,-0.478,-0.477,-0.4745,-0.474,-0.4731,-0.4742,-0.4682,-0.4681,-0.468,-0.4683,-0.4682,-0.4681,0,0,0,0,0,-0.4901,-0.4885,-0.4882,-0.4876,-0.4842,-0.4819,-0.4814,-0.4803,-0.4806,-0.4797,-0.4784,-0.4781,-0.4736,-0.4743,-0.4737,-0.4728,-0.4683,-0.4682,-0.4681,-0.4684,-0.4682,-0.4681,0,0,0,0,0,0,-0.4907,-0.4882,-0.4879,-0.4856,-0.4839,-0.4817,-0.4807,-0.4802,-0.4785,-0.4785,-0.4772,-0.4767,-0.4745,-0.4734,-0.4742,-0.4706,-0.4709,-0.4707,-0.4714,-0.4712,-0.4711,-0.4714,-0.474,0,0,0,0,0,-0.4906,-0.4889,-0.4868,-0.485,-0.4842,-0.4826,-0.4815,-0.4808,-0.479,-0.4783,-0.4769,-0.4752,-0.4734,-0.4723,-0.4705,-0.4682,-0.4676,-0.4672,-0.4671,-0.467,-0.4669,-0.4655,-0.4653,-0.4676,-0.4676,-0.4676,0,0,-0.4903,-0.4887,-0.4878,-0.4851,-0.4837,-0.482,-0.482,-0.4802,-0.4789,-0.4781,-0.4758,-0.4747,-0.4727,-0.4704,-0.4693,-0.4695,-0.4661,-0.4669,-0.4668,-0.4667,-0.4654,-0.4652,-0.465,-0.4675,-0.4676,-0.4676,0,0,-0.4889,-0.4876,-0.4859,-0.4845,-0.4825,-0.4814,-0.481,-0.4789,-0.4781,-0.4758,-0.4752,-0.4736,-0.4705,-0.4692,-0.4681,-0.4661,-0.4657,-0.4656,-0.465,-0.4637,-0.4636,-0.4634,-0.4627,-0.4624,-0.4654,-0.4654,-0.4654,0,-0.4888,-0.4863,-0.4851,-0.4833,-0.4821,-0.4813,-0.4795,-0.4783,-0.4758,-0.475,-0.4751,-0.4713,-0.4699,-0.4672,-0.4668,-0.4659,-0.4654,-0.4658,-0.4637,-0.4635,-0.4633,-0.4626,-0.4624,-0.4654,-0.4654,-0.4654,-0.4654,0,-0.4862,-0.4844,-0.4833,-0.4809,-0.4796,-0.4779,-0.4764,-0.4752,-0.4746,-0.4735,-0.4712,-0.4695,-0.4673,-0.4667,-0.466,-0.4639,-0.464,-0.4639,-0.4643,-0.4631,-0.4624,-0.4622,-0.4654,-0.4654,-0.4654,-0.4654,0,0,-0.4852,-0.4821,-0.4817,-0.4806,-0.4783,-0.4769,-0.4751,-0.473,-0.472,-0.4703,-0.4688,-0.4662,-0.4661,-0.4648,-0.464,-0.4629,-0.4614,-0.4629,-0.4629,-0.4627,-0.459,-0.459,-0.4588,-0.4611,-0.4611,-0.461,-0.4591,0,-0.4835,-0.4803,-0.4792,-0.4765,-0.4748,-0.474,-0.4724,-0.4708,-0.4697,-0.4681,-0.4669,-0.4651,-0.4651,-0.4643,-0.4632,-0.4619,-0.4607,-0.462,-0.4597,-0.4596,-0.4602,-0.4584,-0.4585,-0.4568,-0.4589,-0.4588,-0.4588,0,-0.4812,-0.4794,-0.4766,-0.4745,-0.4737,-0.4723,-0.4703,-0.4688,-0.4669,-0.4662,-0.4648,-0.4641,-0.4621,-0.4626,-0.4598,-0.4608,-0.4597,-0.4589,-0.4588,-0.4586,-0.4591,-0.4581,-0.4562,-0.4559,-0.4584,-0.4584,-0.4584,0,-0.4807,-0.4776,-0.4755,-0.4746,-0.4721,-0.4711,-0.47,-0.4682,-0.467,-0.4652,-0.4644,-0.4625,-0.4614,-0.4599,-0.4586,-0.459,-0.456,-0.4563,-0.4553,-0.4554,-0.4547,-0.4548,-0.4526,-0.4541,-0.4541,-0.4541,-0.4541,0,-0.4789,-0.4772,-0.4753,-0.474,-0.472,-0.4707,-0.4688,-0.4677,-0.4661,-0.4645,-0.4637,-0.4622,-0.4607,-0.459,-0.458,-0.4559,-0.4554,-0.4548,-0.4545,-0.4548,-0.4549,-0.4542,-0.4543,-0.454,-0.454,-0.454,-0.4541,0,-0.4781,-0.4767,-0.4744,-0.4722,-0.4716,-0.4702,-0.4683,-0.467,-0.4659,-0.4639,-0.4634,-0.4616,-0.4596,-0.4582,-0.4556,-0.4549,-0.4527,-0.4524,-0.4533,-0.4532,-0.4523,-0.4524,-0.4496,-0.4491,-0.4509,-0.4508,-0.4508,0,-0.4771,-0.4758,-0.4734,-0.4723,-0.4712,-0.4695,-0.4682,-0.4669,-0.4656,-0.4634,-0.4624,-0.4603,-0.4586,-0.4555,-0.4539,-0.4519,-0.4516,-0.4508,-0.4513,-0.4517,-0.4516,-0.4517,-0.4516,-0.4507,-0.4507,-0.4507,-0.4507,0,-0.4754,-0.4748,-0.4731,-0.4711,-0.4697,-0.4681,-0.4665,-0.4656,-0.464,-0.4626,-0.4606,-0.4592,-0.4566,-0.4546,-0.4524,-0.4512,-0.4507,-0.4505,-0.4502,-0.4505,-0.4511,-0.4508,-0.4531,-0.4506,-0.4506,-0.4506,-0.4506,-0.4506,-0.4745,-0.4733,-0.4714,-0.4695,-0.4681,-0.4666,-0.4653,-0.464,-0.4623,-0.46,-0.4593,-0.4572,-0.4553,-0.4524,-0.4512,-0.4495,-0.4495,-0.4491,-0.4489,-0.4488,-0.4489,-0.4513,-0.4491,-0.4491,-0.4491,-0.4491,-0.4491,0,-0.4728,-0.4716,-0.4698,-0.4676,-0.4661,-0.4657,-0.4639,-0.4626,-0.4608,-0.4591,-0.4574,-0.455,-0.4531,-0.4513,-0.4493,-0.4482,-0.4479,-0.4477,-0.4478,-0.4475,-0.4489,-0.4494,-0.448,-0.448,-0.448,-0.448,-0.448,-0.448,-0.4718,-0.4697,-0.4688,-0.466,-0.4648,-0.4627,-0.4617,-0.4603,-0.4589,-0.4563,-0.4547,-0.4536,-0.4519,-0.4496,-0.4478,-0.4473,-0.4466,-0.4465,-0.446,-0.4473,-0.4474,-0.4476,-0.448,-0.4463,-0.4463,-0.4447,-0.4447,-0.4447]},{"header":{"parameterUnit":"m.s-1","parameterCategory":1,"la1":30.2991,"la2":30.254,"lo1":-89.0895,"lo2":-89.0444,"dy":0.0017,"dx":0.0017,"nx":28,"ny":28,"refTime":"2024-03-15T09:00:00:Z","depth":0,"parameterNumber":3,"parameterNumberName":"V-component_of_WINDS"},"data":[0,0,0,0,0,0,0,0,0,0,0,0,0,0,0,0,0,0,0,0,0,0,0,0,0,0,0,0,0,0,0,0,0,0,0,0,0,0,0,0,0,0,0,0,0,0,0,0,0,0,0,0,0,0,0,0,0,0,-2.4721,-2.4721,0,-2.4719,-2.4719,-2.4719,-2.4706,-2.4705,-2.4705,-2.4705,-2.47,-2.4701,-2.4701,0,0,0,0,0,0,0,0,0,0,0,0,0,-2.471,-2.4711,-2.4721,-2.4721,-2.4721,-2.4719,-2.4719,-2.4719,-2.4706,-2.4705,-2.4705,-2.4705,-2.47,-2.4701,-2.4701,0,0,0,0,0,0,0,0,0,0,0,0,0,-2.4712,-2.4711,-2.4721,-2.4714,-2.4713,-2.4719,-2.4719,-2.4719,-2.4706,-2.4705,-2.4705,-2.4705,-2.47,-2.4701,-2.4701,-2.4712,0,0,-2.4702,-2.4702,0,0,0,0,0,0,0,0,-2.4712,-2.4713,-2.4715,-2.4714,-2.4714,-2.4712,-2.4714,-2.4717,-2.4706,-2.4709,-2.4705,-2.4704,-2.4705,-2.4704,-2.4705,-2.4712,-2.4712,-2.4702,-2.4702,-2.4702,-2.4702,0,0,0,0,0,0,0,-2.4712,-2.4713,-2.472,-2.4715,-2.4714,-2.471,-2.471,-2.4714,-2.4709,-2.4708,-2.4707,-2.4708,-2.4704,-2.4705,-2.4705,-2.4712,-2.4702,-2.4702,-2.4702,-2.4702,-2.473,-2.473,0,0,0,0,0,0,-2.4713,-2.4713,-2.472,-2.472,-2.4712,-2.4711,-2.4711,-2.4713,-2.4709,-2.4708,-2.4708,-2.4707,-2.4705,-2.4705,-2.4705,-2.4719,-2.4702,-2.4702,-2.4702,-2.4729,-2.473,-2.473,0,0,0,0,0,0,-2.4713,-2.4714,-2.472,-2.4716,-2.4717,-2.4712,-2.4715,-2.4713,-2.4714,-2.4709,-2.4708,-2.471,-2.4704,-2.4704,-2.4711,-2.4719,-2.4702,-2.4703,-2.4728,-2.4729,-2.473,-2.4747,0,0,0,0,0,0,-2.4713,-2.4714,-2.4719,-2.4716,-2.4717,-2.4727,-2.4715,-2.4714,-2.4715,-2.4714,-2.471,-2.4709,-2.4704,-2.4711,-2.4711,-2.4719,-2.4703,-2.4728,-2.4729,-2.473,-2.4746,-2.4749,-2.4751,0,0,0,0,0,-2.4712,-2.4723,-2.4719,-2.472,-2.4723,-2.4728,-2.4728,-2.4722,-2.4716,-2.472,-2.4717,-2.4709,-2.4718,-2.4712,-2.4712,-2.472,-2.4727,-2.4728,-2.473,-2.4745,-2.4748,-2.4751,0,0,0,0,0,0,-2.4724,-2.4722,-2.4718,-2.4728,-2.4728,-2.4725,-2.4731,-2.4725,-2.4727,-2.4725,-2.4717,-2.4717,-2.4725,-2.4723,-2.4716,-2.4731,-2.4721,-2.4723,-2.4733,-2.4736,-2.4738,-2.4739,-2.4703,0,0,0,0,0,-2.4728,-2.4733,-2.4731,-2.4739,-2.474,-2.4736,-2.4737,-2.4733,-2.4733,-2.4733,-2.473,-2.4729,-2.4732,-2.4733,-2.4735,-2.4746,-2.4745,-2.4751,-2.4754,-2.4756,-2.4757,-2.4764,-2.4767,-2.4735,-2.4734,-2.4734,0,0,-2.4736,-2.4736,-2.4739,-2.4742,-2.4742,-2.4747,-2.4736,-2.4741,-2.4745,-2.4733,-2.474,-2.4738,-2.4736,-2.4746,-2.4749,-2.4744,-2.4766,-2.4757,-2.4759,-2.4759,-2.4766,-2.4769,-2.4771,-2.4735,-2.4735,-2.4735,0,0,-2.4753,-2.4753,-2.4761,-2.4762,-2.4762,-2.476,-2.4762,-2.476,-2.4759,-2.4766,-2.4758,-2.4761,-2.4766,-2.4766,-2.4766,-2.4785,-2.4778,-2.4786,-2.4798,-2.4805,-2.4808,-2.481,-2.4818,-2.4821,-2.4787,-2.4787,-2.4787,0,-2.4763,-2.4771,-2.4766,-2.4773,-2.4775,-2.4766,-2.4774,-2.4774,-2.4775,-2.4776,-2.4771,-2.4777,-2.4775,-2.4785,-2.479,-2.479,-2.4793,-2.4786,-2.4808,-2.481,-2.4812,-2.482,-2.4822,-2.4788,-2.4788,-2.4788,-2.4788,0,-2.4783,-2.4789,-2.4795,-2.4798,-2.4801,-2.4808,-2.4804,-2.4807,-2.4803,-2.4801,-2.4808,-2.4806,-2.4808,-2.481,-2.4805,-2.482,-2.4817,-2.4809,-2.4799,-2.4816,-2.4823,-2.4826,-2.4789,-2.4789,-2.4789,-2.4789,0,0,-2.4807,-2.4809,-2.4811,-2.4813,-2.4813,-2.4818,-2.4825,-2.4828,-2.4831,-2.4832,-2.4838,-2.4843,-2.4837,-2.4838,-2.4833,-2.4839,-2.4855,-2.4831,-2.4831,-2.4837,-2.4872,-2.4879,-2.4882,-2.4851,-2.4851,-2.4852,-2.4873,0,-2.4825,-2.4839,-2.4835,-2.4848,-2.4854,-2.4846,-2.4853,-2.4854,-2.4852,-2.4856,-2.4854,-2.4858,-2.4849,-2.485,-2.4855,-2.4852,-2.4863,-2.4851,-2.4857,-2.4857,-2.4858,-2.4885,-2.4891,-2.4911,-2.4875,-2.4876,-2.4876,0,-2.4847,-2.4851,-2.4866,-2.4867,-2.4869,-2.4875,-2.4879,-2.4883,-2.4884,-2.4882,-2.4884,-2.4878,-2.4885,-2.4875,-2.4885,-2.4877,-2.4879,-2.4878,-2.4879,-2.488,-2.4868,-2.4888,-2.4917,-2.4921,-2.488,-2.488,-2.488,0,-2.4865,-2.4873,-2.4884,-2.4885,-2.4887,-2.4891,-2.4892,-2.4892,-2.4895,-2.4898,-2.49,-2.4903,-2.4905,-2.4907,-2.4903,-2.4895,-2.4914,-2.4902,-2.4913,-2.4913,-2.4917,-2.4917,-2.4949,-2.4917,-2.4917,-2.4917,-2.4917,0,-2.4886,-2.4895,-2.4892,-2.4898,-2.4909,-2.4905,-2.4915,-2.4914,-2.4915,-2.4921,-2.4914,-2.492,-2.4913,-2.4918,-2.4914,-2.4924,-2.4924,-2.4923,-2.4922,-2.4924,-2.4925,-2.4926,-2.4925,-2.4918,-2.4918,-2.4918,-2.4918,0,-2.4907,-2.4906,-2.4917,-2.4918,-2.4918,-2.4926,-2.4927,-2.4933,-2.4931,-2.4939,-2.494,-2.4937,-2.4943,-2.4939,-2.4943,-2.4941,-2.4954,-2.495,-2.4954,-2.4954,-2.4965,-2.4964,-2.4999,-2.5004,-2.4968,-2.4969,-2.4969,0,-2.4921,-2.4929,-2.4931,-2.4935,-2.4937,-2.4943,-2.4947,-2.4943,-2.4947,-2.495,-2.4955,-2.496,-2.4965,-2.4974,-2.4972,-2.4976,-2.4973,-2.4985,-2.4973,-2.4976,-2.4975,-2.4975,-2.4976,-2.4987,-2.4988,-2.4988,-2.4988,0,-2.4946,-2.4945,-2.4951,-2.4958,-2.4962,-2.4967,-2.497,-2.4974,-2.497,-2.4974,-2.4981,-2.4984,-2.499,-2.4996,-2.5,-2.4999,-2.4994,-2.4992,-2.4995,-2.4998,-2.5,-2.5,-2.4962,-2.4991,-2.4991,-2.4991,-2.4991,-2.4991,-2.4965,-2.4972,-2.4976,-2.4983,-2.4985,-2.4989,-2.4996,-2.4995,-2.5001,-2.5007,-2.5004,-2.5012,-2.5013,-2.5018,-2.5019,-2.5025,-2.502,-2.5024,-2.5025,-2.5026,-2.5028,-2.4999,-2.5025,-2.5025,-2.5025,-2.5025,-2.5025,0,-2.4991,-2.4993,-2.5,-2.5006,-2.5012,-2.5007,-2.5011,-2.5016,-2.5024,-2.5026,-2.5031,-2.5039,-2.5045,-2.5044,-2.5049,-2.5054,-2.5052,-2.5056,-2.5056,-2.5056,-2.5032,-2.5029,-2.5058,-2.5058,-2.5058,-2.5058,-2.5058,-2.5058,-2.5005,-2.5017,-2.5017,-2.5031,-2.5032,-2.5041,-2.5044,-2.5048,-2.505,-2.506,-2.5066,-2.5066,-2.5067,-2.5072,-2.5078,-2.5077,-2.508,-2.5085,-2.5084,-2.5061,-2.5058,-2.5055,-2.5053,-2.5085,-2.5086,-2.5108,-2.5108,-2.5108]}]]